This demonstration page uses our WeatherBlox Daily Observations layout. Learn more.

40.92945, -100.16068

Hourly Observations for May 25, 2018

Temp ( °F °C ) Dew Point ( °F °C ) Humidity (%) Winds ( mph kmh ) Pressure ( in mb ) Visibility ( mi km ) Precip ( " mm )
12:15 am 00:15 Clear 74 23.1 50 10.2 44 44 SW 14 22 29.8 1009 10 16.0934 0 0
12:35 am 00:35 Clear 74 23.2 49 9.5 42 42 SSW 13 20 29.8 1009 10 16.0934 0 0
12:55 am 00:55 Clear 73 22.7 51 10.5 46 46 SW 12 19 29.85 1011 10 16.0934 0 0
1:15 am 01:15 Clear 72 22.2 52 11.2 50 50 S 15 24 29.85 1011 10 16.0934 0 0
1:35 am 01:35 Clear 71 21.6 53 11.6 53 53 SW 12 19 29.85 1011 10 16.0934 0 0
1:55 am 01:55 Clear 70 21.2 53 11.6 54 54 SW 12 19 29.85 1011 10 16.0934 0 0
2:15 am 02:15 Clear 69 20.5 53 11.5 56 56 SW 9 15 29.85 1011 10 16.0934 0 0
2:35 am 02:35 Clear 67 19.3 53 11.5 61 61 WSW 7 11 29.85 1011 10 16.0934 0 0
2:55 am 02:55 Clear 65 18.6 53 11.6 64 64 WSW 7 11 29.85 1011 10 16.0934 0 0
3:15 am 03:15 Clear 65 18.3 53 11.5 65 65 WSW 6 9 29.88 1012 10 16.0934 0 0
3:35 am 03:35 Clear 65 18.2 53 11.4 65 65 WSW 6 9 29.88 1012 10 16.0934 0 0
3:55 am 03:55 Clear 64 17.7 52 11.3 66 66 WSW 3 6 29.88 1012 10 16.0934 0 0
4:15 am 04:15 Clear 64 17.5 52 11.2 67 67 W 6 9 29.88 1012 10 16.0934 0 0
4:35 am 04:35 Clear 64 17.8 52 11 65 65 W 6 9 29.88 1012 10 16.0934 0 0
4:55 am 04:55 Clear 61 16.3 52 11.3 72 72 NW 3 6 29.88 1012 10 16.0934 0 0
5:15 am 05:15 Clear 60 15.4 52 11.2 76 76 NW 6 9 29.91 1013 10 16.0934 0 0
5:35 am 05:35 Clear 61 16 52 11.1 73 73 W 7 11 29.88 1012 10 16.0934 0 0
5:55 am 05:55 Clear 61 16.1 52 11.1 72 72 NNW 6 9 29.88 1012 10 16.0934 0 0
6:15 am 06:15 Sunny 61 16.2 52 11 71 71 WNW 9 15 29.88 1012 10 16.0934 0 0
6:35 am 06:35 Sunny 63 17.3 52 11 67 67 NW 6 9 29.88 1012 10 16.0934 0 0
6:55 am 06:55 Sunny 60 15.7 53 11.5 76 76 WNW 7 11 29.91 1013 10 16.0934 0 0
7:15 am 07:15 Sunny 61 16.3 54 12.2 77 77 NW 6 9 29.88 1012 10 16.0934 0 0
7:35 am 07:35 Sunny 64 17.9 55 12.5 71 71 WNW 6 9 29.88 1012 10 16.0934 0 0
7:55 am 07:55 Sunny 66 18.8 56 13.5 71 71 NW 5 7 29.88 1012 10 16.0934 0 0
8:15 am 08:15 Sunny 67 19.6 56 13.2 67 67 WNW 6 9 29.85 1011 10 16.0934 0 0
8:35 am 08:35 Sunny 69 20.5 56 13.3 63 63 WNW 8 13 29.85 1011 10 16.0934 0 0
8:55 am 08:55 Sunny 70 21.2 56 13.3 61 61 WNW 10 17 29.85 1011 10 16.0934 0 0
9:15 am 09:15 Sunny 72 22 57 14 61 61 WNW 10 17 29.85 1011 10 16.0934 0 0
9:35 am 09:35 Sunny 73 23 58 14.2 58 58 WNW 9 15 29.83 1010 10 16.0934 0 0
9:55 am 09:55 Sunny 75 24.1 59 15 57 57 W 7 11 29.8 1009 10 16.0934 0 0
10:15 am 10:15 Sunny 77 25 58 14.7 53 53 W 7 11 29.8 1009 10 16.0934 0 0
10:35 am 10:35 Sunny 79 26.2 58 14.5 49 49 WSW 6 9 29.77 1008 10 16.0934 0 0
10:55 am 10:55 Sunny 81 27.1 59 15 48 48 WSW 6 9 29.77 1008 10 16.0934 0 0
11:15 am 11:15 Sunny 82 27.9 59 14.9 45 45 WSW 5 7 29.77 1008 10 16.0934 0 0
11:35 am 11:35 Sunny 83 28.6 60 15.8 46 46 WSW 6 9 29.77 1008 10 16.0934 0 0
11:55 am 11:55 Sunny 84 29 60 15.4 44 44 W 8 13 29.77 1008 10 16.0934 0 0
12:15 pm 12:15 Sunny 85 29.5 60 15.8 43 43 W 5 7 29.77 1008 10 16.0934 0 0
12:35 pm 12:35 Sunny 86 30 61 16.2 43 43 W 6 9 29.74 1007 10 16.0934 0 0
12:55 pm 12:55 Sunny 87 30.4 62 16.5 43 43 WSW 6 9 29.71 1006 10 16.0934 0 0
1:15 pm 13:15 Sunny 87 30.6 58 14.7 38 38 W 8 13 29.71 1006 10 16.0934 0 0
1:35 pm 13:35 Sunny 88 31.2 57 14 35 35 WNW 10 17 29.71 1006 10 16.0934 0 0
1:55 pm 13:55 Sunny 89 31.6 59 14.9 36 36 W 9 15 29.71 1006 10 16.0934 0 0
2:15 pm 14:15 Sunny 89 31.6 56 13.5 33 33 W 7 11 29.71 1006 10 16.0934 0 0
2:35 pm 14:35 Sunny 90 32 57 13.8 33 33 W 9 15 29.68 1005 10 16.0934 0 0
2:55 pm 14:55 Sunny 90 32.2 57 13.8 33 33 WNW 13 20 29.68 1005 10 16.0934 0 0
3:15 pm 15:15 Partly Cloudy 91 32.5 53 11.8 28 28 W 8 13 29.68 1005 10 16.0934 0 0
3:35 pm 15:35 Partly Cloudy 90 32.3 55 12.9 31 31 W 9 15 29.68 1005 10 16.0934 0 0
3:55 pm 15:55 Partly Cloudy 91 32.8 55 13 30 30 W 13 20 29.65 1004 10 16.0934 0 0
4:15 pm 16:15 Partly Cloudy 91 32.6 54 12.4 29 29 W 9 15 29.62 1003 10 16.0934 0 0
4:35 pm 16:35 Partly Cloudy 90 32.1 52 11 27 27 W 9 15 29.65 1004 10 16.0934 0 0
4:55 pm 16:55 Partly Cloudy 91 32.5 52 11.1 27 27 W 14 22 29.62 1003 10 16.0934 0 0
5:15 pm 17:15 Sunny 91 32.5 55 12.7 30 30 W 10 17 29.62 1003 10 16.0934 0 0
5:35 pm 17:35 Sunny 90 32.2 53 11.5 28 28 W 15 24 29.65 1004 10 16.0934 0 0
5:55 pm 17:55 Sunny 90 32 51 10.7 27 27 NW 12 19 29.65 1004 10 16.0934 0 0
6:15 pm 18:15 Sunny 89 31.4 51 10.8 28 28 WNW 9 15 29.65 1004 10 16.0934 0 0
6:35 pm 18:35 Sunny 88 31.1 56 13.1 33 33 WNW 10 17 29.65 1004 10 16.0934 0 0
6:55 pm 18:55 Sunny 87 30.8 51 10.8 29 29 NW 12 19 29.65 1004 10 16.0934 0 0
7:15 pm 19:15 Sunny 86 29.9 52 11.1 31 31 NW 12 19 29.65 1004 10 16.0934 0 0
7:35 pm 19:35 Sunny 85 29.3 53 11.4 33 33 NW 9 15 29.65 1004 10 16.0934 0 0
7:55 pm 19:55 Sunny 83 28.2 55 12.9 39 39 NW 7 11 29.68 1005 10 16.0934 0 0
8:15 pm 20:15 Sunny 83 28.5 55 12.5 37 37 NW 3 6 29.68 1005 10 16.0934 0 0
8:35 pm 20:35 Sunny 86 29.8 51 10.4 30 30 Calm 29.65 1004 10 16.0934 0 0
8:55 pm 20:55 Sunny 83 28.1 52 11.2 35 35 NNW 3 6 29.68 1005 10 16.0934 0 0
9:15 pm 21:15 Clear 79 26.2 56 13.1 44 44 Calm 29.68 1005 10 16.0934 0 0
9:35 pm 21:35 Clear 77 25.2 57 14.1 50 50 ENE 3 6 29.68 1005 10 16.0934 0 0
9:55 pm 21:55 Clear 72 22.2 59 14.9 63 63 Calm 29.71 1006 10 16.0934 0 0
10:15 pm 22:15 Clear 73 22.9 58 14.6 60 60 S 5 7 29.71 1006 10 16.0934 0 0
10:35 pm 22:35 Clear 72 22.4 58 14.4 61 61 S 3 6 29.71 1006 10 16.0934 0 0
10:55 pm 22:55 Clear 71 21.9 58 14.7 64 64 Calm 29.71 1006 7 11.26538 0 0
11:15 pm 23:15 Clear 70 21 59 15.1 69 69 SSW 5 7 29.74 1007 7 11.26538 0 0
11:35 pm 23:35 Clear 69 20.4 59 15.1 72 72 Calm 29.74 1007 10 16.0934 0 0
11:55 pm 23:55 Clear 66 19 60 15.4 80 80 N 5 7 29.74 1007 10 16.0934 0 0

Powered by AerisWeather